• In Hungary
  • List of Countries
  • For 7 days
  • Water Temperature
  • Satellite Maps
  • Weather Map
  • News
  • Weather Widgets
  • user-avatar
    Login

    Hourly Weather Lokeren

    Today, 20 June, Wednesday

    Time Temperature Precipitation Wind Pressure Humidity
    00:00 +16°C° 0 mm 2 mps 767 mmHg 94%
    01:00 +16°C° 0 mm 2 mps 767 mmHg 95%
    02:00 +15°C° 0 mm 2 mps 767 mmHg 95%
    03:00 +15°C° 0 mm 2 mps 766 mmHg 95%
    04:00 +16°C° 0 mm 2 mps 766 mmHg 93%
    05:00 +17°C° 0 mm 3 mps 766 mmHg 91%
    06:00 +18°C° 0 mm 3 mps 766 mmHg 89%
    07:00 +19°C° 0 mm 3 mps 766 mmHg 84%
    08:00 +21°C° 0 mm 3 mps 766 mmHg 78%
    09:00 +22°C° 0 mm 4 mps 766 mmHg 73%
    10:00 +23°C° 0 mm 4 mps 765 mmHg 70%
    11:00 +25°C° 0 mm 4 mps 765 mmHg 67%
    12:00 +26°C° 0 mm 4 mps 765 mmHg 64%
    13:00 +27°C° 0 mm 4 mps 765 mmHg 63%
    14:00 +27°C° 0 mm 4 mps 764 mmHg 62%
    15:00 +27°C° 0 mm 4 mps 764 mmHg 61%
    16:00 +26°C° 0 mm 4 mps 764 mmHg 64%
    17:00 +25°C° 0 mm 4 mps 764 mmHg 68%
    18:00 +25°C° 0 mm 4 mps 764 mmHg 71%
    19:00 +22°C° 0 mm 4 mps 764 mmHg 77%
    20:00 +20°C° 0 mm 3 mps 763 mmHg 83%
    21:00 +18°C° 0 mm 3 mps 763 mmHg 89%
    22:00 +17°C° 0 mm 3 mps 763 mmHg 90%
    23:00 +17°C° 0 mm 3 mps 763 mmHg 92%

    Tomorrow, 21 June, Thursday

    Time Temperature Precipitation Wind Pressure Humidity
    00:00 +15°C° 0 mm 4 mps 763 mmHg 94%
    01:00 +15°C° 0 mm 4 mps 763 mmHg 93%
    02:00 +15°C° 0 mm 4 mps 763 mmHg 93%
    03:00 +15°C° 0 mm 4 mps 763 mmHg 92%
    04:00 +15°C° 0 mm 5 mps 763 mmHg 88%
    05:00 +15°C° 0 mm 6 mps 763 mmHg 83%
    06:00 +14°C° 0 mm 7 mps 763 mmHg 78%
    07:00 +15°C° 0 mm 7 mps 764 mmHg 72%
    08:00 +15°C° 0 mm 7 mps 765 mmHg 66%
    09:00 +15°C° 0 mm 8 mps 765 mmHg 60%
    10:00 +16°C° 0 mm 8 mps 766 mmHg 58%
    11:00 +16°C° 0 mm 8 mps 766 mmHg 55%
    12:00 +16°C° 0 mm 8 mps 766 mmHg 53%
    13:00 +16°C° 0 mm 8 mps 767 mmHg 55%
    14:00 +16°C° 0 mm 8 mps 767 mmHg 56%
    15:00 +16°C° 0 mm 8 mps 767 mmHg 57%
    16:00 +15°C° 0 mm 7 mps 768 mmHg 60%
    17:00 +14°C° 0 mm 7 mps 768 mmHg 63%
    18:00 +14°C° 0 mm 7 mps 768 mmHg 66%
    19:00 +11°C° 0 mm 6 mps 769 mmHg 68%
    20:00 +10°C° 0 mm 5 mps 769 mmHg 71%
    21:00 +10°C° 0 mm 4 mps 770 mmHg 74%
    22:00 +10°C° 0 mm 4 mps 770 mmHg 73%
    23:00 +10°C° 0 mm 3 mps 770 mmHg 72%

    Day after tomorrow, 22 June, Friday

    Time Temperature Precipitation Wind Pressure Humidity
    00:00 +10°C° 0 mm 3 mps 770 mmHg 71%
    01:00 +10°C° 0 mm 3 mps 770 mmHg 73%
    02:00 +10°C° 0 mm 4 mps 770 mmHg 74%
    03:00 +10°C° 0 mm 4 mps 770 mmHg 75%
    04:00 +11°C° 0 mm 4 mps 770 mmHg 74%
    05:00 +12°C° 0 mm 5 mps 770 mmHg 73%
    06:00 +13°C° 0 mm 6 mps 770 mmHg 72%
    07:00 +14°C° 0 mm 6 mps 770 mmHg 69%
    08:00 +15°C° 0 mm 6 mps 770 mmHg 65%
    09:00 +16°C° 0 mm 6 mps 770 mmHg 61%
    10:00 +16°C° 0 mm 6 mps 770 mmHg 61%
    11:00 +16°C° 0 mm 6 mps 770 mmHg 61%
    12:00 +16°C° 0 mm 6 mps 770 mmHg 62%
    13:00 +16°C° 0 mm 7 mps 770 mmHg 62%
    14:00 +16°C° 0 mm 7 mps 770 mmHg 63%
    15:00 +16°C° 0 mm 7 mps 770 mmHg 64%
    16:00 +15°C° 0 mm 6 mps 770 mmHg 66%
    17:00 +15°C° 0 mm 6 mps 770 mmHg 68%
    18:00 +14°C° 0 mm 5 mps 770 mmHg 71%
    19:00 +13°C° 0 mm 5 mps 770 mmHg 74%
    20:00 +12°C° 0 mm 4 mps 771 mmHg 78%
    21:00 +11°C° 0 mm 3 mps 771 mmHg 81%
    22:00 +10°C° 0 mm 3 mps 771 mmHg 84%
    23:00 +10°C° 0 mm 3 mps 771 mmHg 87%

    23 June, Saturday

    Time Temperature Precipitation Wind Pressure Humidity
    00:00 +9°C° 0 mm 2 mps 771 mmHg 90%
    01:00 +9°C° 0 mm 2 mps 770 mmHg 90%
    02:00 +9°C° 0 mm 2 mps 770 mmHg 91%
    03:00 +9°C° 0 mm 2 mps 770 mmHg 91%
    04:00 +10°C° 0 mm 2 mps 770 mmHg 87%
    05:00 +11°C° 0 mm 3 mps 770 mmHg 83%
    06:00 +12°C° 0 mm 3 mps 770 mmHg 78%
    07:00 +13°C° 0 mm 3 mps 770 mmHg 75%
    08:00 +14°C° 0 mm 3 mps 770 mmHg 73%
    09:00 +16°C° 0 mm 3 mps 770 mmHg 70%
    10:00 +17°C° 0 mm 3 mps 770 mmHg 67%
    11:00 +18°C° 0 mm 3 mps 770 mmHg 64%
    12:00 +18°C° 0 mm 3 mps 770 mmHg 61%
    13:00 +19°C° 0 mm 3 mps 770 mmHg 60%
    14:00 +19°C° 0 mm 3 mps 769 mmHg 58%
    15:00 +19°C° 0 mm 4 mps 769 mmHg 57%
    16:00 +19°C° 0 mm 4 mps 769 mmHg 61%
    17:00 +18°C° 0 mm 4 mps 769 mmHg 64%
    18:00 +18°C° 0 mm 4 mps 769 mmHg 67%
    19:00 +16°C° 0 mm 3 mps 769 mmHg 74%
    20:00 +14°C° 0 mm 3 mps 769 mmHg 80%
    21:00 +13°C° 0 mm 2 mps 769 mmHg 87%
    22:00 +12°C° 0 mm 2 mps 769 mmHg 88%
    23:00 +12°C° 0 mm 2 mps 769 mmHg 90%

    24 June, Sunday

    Time Temperature Precipitation Wind Pressure Humidity
    00:00 +10°C° 0 mm 2 mps 769 mmHg 92%
    01:00 +10°C° 0 mm 2 mps 769 mmHg 92%
    02:00 +10°C° 0 mm 1 mps 769 mmHg 92%
    03:00 +10°C° 0 mm 1 mps 769 mmHg 92%
    04:00 +11°C° 0 mm 1 mps 769 mmHg 88%
    05:00 +12°C° 0 mm 1 mps 769 mmHg 84%
    06:00 +13°C° 0 mm 1 mps 769 mmHg 81%
    07:00 +15°C° 0 mm 2 mps 769 mmHg 75%
    08:00 +16°C° 0 mm 2 mps 769 mmHg 69%
    09:00 +17°C° 0 mm 2 mps 769 mmHg 63%
    10:00 +18°C° 0 mm 2 mps 769 mmHg 61%
    11:00 +19°C° 0 mm 3 mps 769 mmHg 58%
    12:00 +20°C° 0 mm 3 mps 769 mmHg 56%
    13:00 +20°C° 0 mm 3 mps 769 mmHg 57%
    14:00 +21°C° 0 mm 4 mps 769 mmHg 59%
    15:00 +21°C° 0 mm 4 mps 769 mmHg 60%
    16:00 +20°C° 0 mm 4 mps 769 mmHg 63%
    17:00 +20°C° 0 mm 4 mps 769 mmHg 66%
    18:00 +19°C° 0 mm 4 mps 768 mmHg 68%
    19:00 +18°C° 0 mm 3 mps 769 mmHg 73%
    20:00 +16°C° 0 mm 3 mps 769 mmHg 78%
    21:00 +13°C° 0 mm 3 mps 769 mmHg 82%
    22:00 +13°C° 0 mm 3 mps 769 mmHg 84%
    23:00 +14°C° 0 mm 2 mps 769 mmHg 86%

    25 June, Monday

    Time Temperature Precipitation Wind Pressure Humidity
    00:00 +13°C° 0 mm 2 mps 769 mmHg 88%
    01:00 +13°C° 0 mm 2 mps 769 mmHg 89%
    02:00 +12°C° 0 mm 2 mps 769 mmHg 91%
    03:00 +12°C° 0 mm 2 mps 769 mmHg 93%
    04:00 +13°C° 0 mm 2 mps 769 mmHg 89%
    05:00 +14°C° 0 mm 2 mps 769 mmHg 86%
    06:00 +14°C° 0 mm 3 mps 769 mmHg 83%
    07:00 +17°C° 0 mm 3 mps 769 mmHg 77%
    08:00 +18°C° 0 mm 3 mps 769 mmHg 71%
    09:00 +20°C° 0 mm 3 mps 769 mmHg 65%
    10:00 +21°C° 0 mm 3 mps 769 mmHg 62%
    11:00 +22°C° 0 mm 3 mps 769 mmHg 59%
    12:00 +25°C° 0 mm 4 mps 769 mmHg 55%
    13:00 +25°C° 0 mm 4 mps 768 mmHg 55%
    14:00 +26°C° 0 mm 4 mps 768 mmHg 54%
    15:00 +26°C° 0 mm 4 mps 768 mmHg 54%
    16:00 +25°C° 0 mm 4 mps 768 mmHg 57%
    17:00 +25°C° 0 mm 4 mps 768 mmHg 61%
    18:00 +23°C° 0 mm 4 mps 768 mmHg 64%
    19:00 +22°C° 0 mm 4 mps 768 mmHg 69%
    20:00 +20°C° 0 mm 4 mps 768 mmHg 73%
    21:00 +18°C° 0 mm 3 mps 769 mmHg 78%
    22:00 +18°C° 0 mm 3 mps 769 mmHg 80%
    23:00 +17°C° 0 mm 3 mps 769 mmHg 83%
    Show more